Preview of NWS' New Version of Forecast
This preview is not operational and should not be used for support decisions.

Regional Weather Roundup (RWR)

Issued by National Weather Service (NWS)

                            
000
ASUS45 KCYS 231410
RWRWY 

WYOMING REGIONAL WEATHER ROUNDUP
NATIONAL WEATHER SERVICE CHEYENNE WY
800 AM MDT TUE APR 23 2019

NOTE:  "FAIR" INDICATES FEW OR NO CLOUDS BELOW 12,000 FEET
WITH NO SIGNIFICANT WEATHER AND/OR OBSTRUCTIONS TO VISIBILITY.

WYZ001-231500-
...YELLOWSTONE NATIONAL PARK...
  
CITY           SKY/WX    TMP DP  RH WIND       PRES   REMARKS
LK YELLOWSTONE   N/A     33  28  81 CALM      30.26R                  
W YELLOWSTONE  NOT AVBL                                               

$$
WYZ002>013-054>058-071-098>099-231500-
...NORTHERN WYOMING...
  
CITY           SKY/WX    TMP DP  RH WIND       PRES   REMARKS
JACKSON        SUNNY     30  28  92 N3        30.25R                  
CODY           MOSUNNY   54  35  48 CALM      30.09S                  
GREYBULL       MOSUNNY   40  37  89 SE3       30.10S                  
WORLAND        MOSUNNY   41  37  86 SW5       30.11R                  
SHERIDAN       MOSUNNY   45  37  73 NE3       30.02S                  
BUFFALO        MOSUNNY   51  34  52 CALM      30.05R                  
GILLETTE       SUNNY     46  38  73 S14       30.05R                  
HULETT         FAIR      50  36  57 SW15G23   30.07R                  
NEWCASTLE      FAIR      46  34  61 S9G17     30.13R                  

$$
WYZ014>020-022>026-101>103-231500-
...CENTRAL WYOMING...
  
CITY           SKY/WX    TMP DP  RH WIND       PRES   REMARKS
BIG PINEY      SUNNY     31  29  92 CALM      30.22S                  
PINEDALE       MOSUNNY   32  32 100 NW5       30.22S WCI  27          
DUBOIS         FAIR      43  30  61 W20G25    30.18S                  
LANDER         SUNNY     42  35  76 CALM      30.13S                  
RIVERTON       SUNNY     41  37  86 CALM      30.14S                  
CASPER         SUNNY     44  37  76 SW13      30.12S                  
DOUGLAS        SUNNY     37  36  96 CALM      30.13S                  

$$
WYZ021-027>030-104>119-231500-
...SOUTHERN WYOMING...
  
CITY           SKY/WX    TMP DP  RH WIND       PRES   REMARKS
EVANSTON       SUNNY     38  32  79 CALM      30.24R                  
KEMMERER       SUNNY     36  32  87 CALM      30.24R                  
FORT BRIDGER   FAIR      37  37 100 W7        30.27R WCI  32          
ROCK SPRINGS   SUNNY     38  35  89 W5        30.22R WCI  34          
DIXON          FAIR      38  32  81 E10       30.23F WCI  30          
RAWLINS        SUNNY     37  34  89 CALM      30.20R                  
SARATOGA       CLOUDY    36  36 100 SE6       30.22R WCI  31          
LARAMIE        SUNNY     32  32 100 S5        30.18S WCI  27          
CHEYENNE       SUNNY     43  38  82 SW15G25   30.17S                  
TORRINGTON     SUNNY     41  38  89 SE8       30.13F                  
PINE BLUFFS    CLOUDY    43  41  93 SW7       30.18S                  

$$